Location: Unspecified
(42.9670°N, 0.0000°E)
Time: 09:49:30
(UTC+00:00)

BUGSAT 1 - Visible Passes

Search period start: 04 April 2026 00:00
Search period end: 14 April 2026 00:00
Orbit: 501 x 542 km, 98.0° (Epoch: 29 March)

Date Brightness Start Highest point End Pass type
(mag) Time Alt. Az. Time Alt. Az. Time Alt. Az.
11 Apr ? 22:38:24 10° N 22:38:24 10° N 22:38:24 10° N visible
12 Apr ? 22:24:59 11° N 22:24:59 11° N 22:25:05 10° N visible
13 Apr ? 22:11:33 10° NNE 22:11:33 10° NNE 22:11:38 10° NNE visible
